Location: Rancho Del Sol Observatory
(38.7214°N, 120.6350°W)
Time: 10:33:47
(UTC-08:00)

Cosmos 2221 Rocket - Visible Passes

Search period start: 24 November 2017 00:00
Search period end: 04 December 2017 00:00
Orbit: 620 x 649 km, 82.5° (Epoch: 24 November)

Date Brightness Start Highest point End Pass type
(mag) Time Alt. Az. Time Alt. Az. Time Alt. Az.
24 Nov 6.5 04:02:23 10° NE 04:04:55 15° ENE 04:07:27 10° ESE visible
24 Nov 3.9 05:39:04 10° NNW 05:43:20 45° W 05:47:38 10° SSW visible
24 Nov 4.0 18:11:11 10° SSW 18:15:32 63° W 18:19:56 10° N visible
25 Nov 5.4 04:24:05 13° NNE 04:27:22 30° ENE 04:31:19 10° SE visible
25 Nov 4.8 06:01:56 10° NW 06:05:21 22° W 06:08:46 10° SW visible
25 Nov 5.5 18:34:02 10° SW 18:37:51 29° WNW 18:41:41 10° NNW visible
26 Nov 3.9 04:47:29 29° N 04:49:41 64° E 04:54:09 10° SSE visible
26 Nov 3.9 17:17:40 10° SSE 17:21:52 45° E 17:26:05 10° NNE visible
26 Nov 6.5 18:57:58 10° WSW 19:00:19 14° WNW 19:02:39 10° NW visible
27 Nov 6.7 03:33:20 12° ENE 03:33:20 12° ENE 03:35:00 10° E visible
27 Nov 3.6 05:10:53 46° NW 05:11:51 58° W 05:16:16 10° S visible
27 Nov 3.7 17:39:35 10° S 17:43:59 79° W 17:48:25 10° N visible
28 Nov 5.9 03:56:45 23° E 03:56:45 23° E 03:59:28 10° SE visible
28 Nov 4.6 05:34:19 26° W 05:34:19 26° W 05:37:40 10° SW visible
28 Nov 5.2 18:02:13 10° SW 18:06:15 35° WNW 18:10:20 10° N visible
29 Nov 5.3 04:20:09 29° SE 04:20:09 29° SE 04:22:32 10° SSE visible
29 Nov 5.7 05:57:42 10° WSW 05:57:42 10° WSW 05:57:48 10° WSW visible
29 Nov 6.4 18:25:44 10° WSW 18:28:40 17° WNW 18:31:38 10° NNW visible
30 Nov 5.5 04:43:30 19° S 04:43:30 19° S 04:44:51 10° S visible
30 Nov 3.6 17:08:04 10° S 17:12:27 82° E 17:16:53 10° N visible
01 Dec 4.8 17:30:28 10° SSW 17:34:41 44° W 17:38:56 10° N visible
02 Dec 6.1 17:53:40 10° SW 17:57:03 21° WNW 18:00:27 10° NNW visible
03 Dec 6.8 18:19:04 10° WNW 18:19:35 10° WNW 18:20:05 10° WNW visible
